Location: Dortmund
(51.5019°N, 7.6520°E)
Time: 14:00:47
(UTC+02:00)

ISS - Pass Details

Date: 27 March 2017
Orbit: 400 x 409 km, 51.6° (Epoch: 23 April)

Event Time Altitude Azimuth Distance (km) Brightness Sun altitude
Rises 21:44:39 0° 214° (SW) 2,309 0.1 -17.1°
Reaches altitude 10° 21:46:59 10° 198° (SSW) 1,455 -1.1 -17.4°
Enters shadow 21:47:13 11° 196° (SSW) 1,383 -1.3 -17.5°
